Погода в Украинске

Украина / Донецкая область     48°05′50″N   37°21′48″E
темп.,
°C
ветер,
м/с
пор.,
м/с
влажн.,
%
обл.,
%
осадки,
мм/ч
давл.,
гПа
погр.,
м
14 июня, пн
пн1400:00+15ю23892 0.0 101125
03:00+15юв33925 0.0 101133
06:00+16юв35905 0.0 1011122
09:00+21ююв4570100 0.0 1012776
12:00+24ююв3456100 0.0 10121522
15:00+26юв234612 0.0 10132179
18:00+25юв23490 0.0 10121701
21:00+20ююв006382 0.0 101211
15 июня, вт
вт1500:00+20св126493 0.0 101217
03:00+19св357339 0.0 101188
06:00+19св4880100 0.0 1011184
09:00+21св467796 0.0 1011288
12:00+26в3348100 0.0 10101895
15:00+25в126094 0.0 1009281
18:00+23юв2471100 0.3 1009332
21:00+20ююв338085 1.7 101030
16 июня, ср
ср1600:00+17ю33902 0.0 101034
03:00+16в11923 0.4 101011
06:00+18в128885 0.0 101066
09:00+21юз3375100 0.9 1011414
12:00+25всв3463100 0.1 1011862
15:00+27всв3551100 0.2 10101890
18:00+23вюв467652 5.9 1010143
21:00+19сз339386 17.2 101151
17 июня, чт
чт1700:00+19ссв71295100 9.9 1011247
03:00+19св81692100 17.8 1012398
06:00+20всв71785100 0.0 1012515
09:00+22всв51383100 1.7 1014627
12:00+23в498051 0.6 1015664
15:00+23ююв4582100 3.4 1016487
18:00+18вюв61494100 15.6 1017495
21:00+18всв4696100 21.4 1018121
18 июня, пт
пт1800:00+18ссв3697100 2.1 1019165
03:00+17в5119562 3.4 1020403
06:00+17всв51191100 1.2 1021450
09:00+18в51085100 1.5 1021536
12:00+21в61071100 0.0 1022932
15:00+23в5864100 0.0 10221437
18:00+22в5970100 0.0 1022465
21:00+18всв41174100 0.0 1023228